Regional Weather Roundup
Issued by NWS

Home | Current Version | Previous Version | Text Only | Print | Product List | Glossary On
Versions: 1 2 3 4 5 6 7 8 9 10 11 12 13 14 15 16 17 18 19 20 21 22 23 24 25 26 27
000
ASUS46 KSEW 260310
RWRWA

WASHINGTON REGIONAL WEATHER ROUNDUP
NATIONAL WEATHER SERVICE SEATTLE WA
800 PM PDT WED MAY 25 2016

NOTE:"FAIR" INDICATES FEW OR NO CLOUDS BELOW 12,000 FEET WITH NO
SIGNIFICANT WEATHER AND/OR OBSTRUCTIONS TO VISIBILITY.

WAZ505-507>509-260400-
SEATTLE, TACOMA, EVERETT, AND VICINITY

CITY           SKY/WX    TMP DP  RH WIND       PRES   REMARKS
EVERETT        CLEAR     59  47  64 S12       30.16R
BOEING FIELD   MOCLDY    59  48  67 SW8       30.17S
RENTON         CLOUDY    60  48  64 SW6       30.17R
SEATAC AIRPORT MOCLDY    58  47  66 W9        30.18S
JBLM-MCCHORD   CLOUDY    57  48  71 SW9       30.18S
PUYALLUP       CLOUDY    59  50  72 VRB6G13   30.18S
BREMERTON      CLOUDY    55  46  71 S9        30.20R
JBLM-FT LEWIS  CLOUDY    58  47  68 SW8       30.18S
TACOMA NARROWS CLOUDY    56  46  69 SW12      30.18S
$$

WAZ001-503-506-510-514-515-260400-
NORTH INTERIOR

CITY           SKY/WX    TMP DP  RH WIND       PRES   REMARKS
BELLINGHAM     CLEAR     60  50  69 S13       30.12R
FRIDAY HARBOR  CLEAR     56  46  69 SW9       30.13S
EASTSOUND      CLEAR     61  48  63 S7        30.09S
PORT ANGELES   CLEAR     55  45  68 NW15G23   30.16S
EDIZ HOOK      FAIR      55  47  75 W9G20     30.16S
PORT TOWNSEND  CLOUDY    57  48  72 W8G14     30.16S
NAS WHIDBEY    MOCLDY    57  49  74 SW10      30.19R
ARLINGTON      CLOUDY    61  46  59 SW8       30.17R
BURLINGTON     CLEAR     59  50  72 SW9       30.15R
$$

WAZ020-022-039-040-504-511-512-260400-
SOUTHWEST INTERIOR

CITY           SKY/WX    TMP DP  RH WIND       PRES   REMARKS
SHELTON        CLOUDY    55  44  66 SW17      30.16R
OLYMPIA        CLOUDY    56  44  64 SW10      30.20R
CHEHALIS       CLOUDY    55  46  71 VRB6      30.21S
KELSO          CLOUDY    57  45  62 W9        30.24R
VANCOUVER      PTCLDY    62  49  62 NW10      30.17S
SCAPPOOSE, OR  CLEAR     59  47  64 NW6       30.18R
PORTLAND, OR   PTCLDY    62  49  62 NW10      30.18R
$$

WAZ021-516-517-260400-
WASHINGTON COAST

CITY           SKY/WX    TMP DP  RH WIND       PRES   REMARKS
FORKS          CLOUDY    53  45  74 W7        30.21S
HOQUIAM        CLOUDY    55  43  63 W14       30.22S HAZE
ASTORIA, OR    CLOUDY    55  46  71 NW8       30.24R
$$

WAZ019-023-024-040-518-519-260400-
CASCADE MOUNTAINS AND COLUMBIA GORGE

CITY           SKY/WX    TMP DP  RH WIND       PRES   REMARKS
STAMPEDE PASS  CLOUDY    45  41  86 VRB6      30.15S
TROUTDALE, OR  MOCLDY    64  49  57 MISG      30.17R
THE DALLES, OR CLEAR     65  45  48 W18       30.07R
$$

WAZ026-027-041>044-520-521-260400-
EAST SLOPES

CITY           SKY/WX    TMP DP  RH WIND       PRES   REMARKS
OMAK           CLEAR     69  53  56 W5        29.89S
WENATCHEE      CLEAR     69  37  30 NW24G30   29.95R
ELLENSBURG     CLEAR     62  41  46 W23G35    30.02R
YAKIMA         CLEAR     69  42  37 NW14G22   30.00R
$$

WAZ028-034-035-260400-
COLUMBIA BASIN

CITY           SKY/WX    TMP DP  RH WIND       PRES   REMARKS
EPHRATA        CLEAR     74  42  31 W10       29.91S
MOSES LAKE     NOT AVBL
PASCO          CLEAR     73  46  38 SW15      29.93S
HERMISTON, OR  CLEAR     68  47  46 SW16G22   29.97R
$$

WAZ036>038-260400-
NORTHEAST WASHINGTON

CITY           SKY/WX    TMP DP  RH WIND       PRES   REMARKS
SPOKANE GEIGER MOCLDY    68  41  37 SW10      29.97S
SPOKANE FELTS  CLOUDY    69  44  40 SW9       29.96S
FAIRCHILD AFB  MOCLDY    66  43  43 SW8       29.98R
COEURDALENE,ID CLOUDY    64  48  55 S6        29.95R
DEER PARK      MOCLDY    65  47  52 N3        29.96S
$$

WAZ029>033-260400-
SOUTHEAST WASHINGTON

CITY           SKY/WX    TMP DP  RH WIND       PRES   REMARKS
PULLMAN        PTCLDY    63  42  46 W7        30.03R
LEWISTON, ID   PTCLDY    70  43  37 W5        29.97R
WALLA WALLA    CLEAR     69  46  43 W9        29.98R
PENDLETON, OR  CLEAR     66  42  41 W18       30.00R
$$




USA.gov is the U.S. government's official web portal to all federal, state and local government web resources and services.